Location: Casteau
(50.5142°N, 4.0161°E)
Time: 04:43:04
(UTC+00:00)

Meteor 1-15 Rocket - Pass Details

Date: 18 September 2020
Orbit: 840 x 907 km, 81.2° (Epoch: 29 October)

Event Time Altitude Azimuth Distance (km) Brightness Sun altitude
Rises 19:51:27 0° 185° (S) 3,395 7.1 -19.3°
Reaches altitude 10° 19:53:50 10° 184° (S) 2,471 6.4 -19.6°
Maximum altitude 19:59:26 77° 99° (E) 887 4.1 -20.4°
Drops below altitude 10° 20:05:10 10° 15° (NNE) 2,530 6.9 -21.2°
Sets 20:07:38 0° 14° (NNE) 3,483 7.6 -21.5°
